1514721600.17,1932,6.88,72746.5,-2.97,-4.81,-4.81,0,*65
1514721601.43,1933,6.94,72744.5,-2.97,-4.77,-4.69,0,*6B
1514721602.65,1934,6.94,72758.0,-2.99,-4.69,-4.65,0,*61
1514721603.86,1935,6.94,72762.5,-2.97,-4.65,-4.61,0,*66
1514721605.1,1936,6.94,72750.0,-2.97,-4.69,-4.61,0,*69
1514721606.31,1937,6.94,72740.0,-2.99,-4.69,-4.53,0,*67
1514721607.5,1938,6.94,72754.8,-2.99,-4.53,-4.41,0,*62
1514721608.7,1939,6.94,72746.8,-2.99,-4.61,-4.53,0,*61
1514721609.89,1940,6.94,72732.3,-2.99,-4.65,-4.65,0,*6E
1514721611.15,1941,6.88,72744.8,-3.01,-4.85,-4.73,0,*66
1514721612.41,1942,6.94,72740.0,-3.01,-4.69,-4.73,0,*67
1514721613.65,1943,6.94,72738.0,-3.01,-4.69,-4.65,0,*61
1514721614.87,1944,6.94,72738.0,-3.03,-4.69,-4.65,0,*64
1514721616.09,1945,6.94,72740.0,-3.01,-4.65,-4.65,0,*6B
1514721617.3,1946,6.94,72762.3,-3.03,-4.99,-4.93,0,*60
1514721618.54,1947,6.94,72760.5,-2.99,-4.89,-4.77,0,*68
1514721619.77,1948,6.94,72728.3,-3.01,-4.57,-4.57,0,*66
1514721620.97,1949,6.94,72716.8,-3.03,-4.57,-4.65,0,*64
1514721622.19,1950,6.94,72714.3,-3.01,-4.57,-4.57,0,*6F
1514721623.41,1951,6.94,72726.8,-3.01,-4.53,-4.53,0,*6E
1514721624.62,1952,6.94,72738.8,-3.01,-4.45,-4.41,0,*69
1514721625.84,1953,6.94,72754.8,-3.01,-4.33,-4.33,0,*6C
1514721627.07,1954,6.88,72762.5,-3.01,-4.33,-4.21,0,*68
1514721628.29,1955,6.88,72770.8,-3.01,-4.17,-4.17,0,*6A
1514721629.5,1956,6.94,72770.3,-3.01,-4.41,-4.33,0,*6C
1514721630.72,1957,6.94,72766.3,-3.01,-4.41,-4.41,0,*68
1514721631.92,1958,6.94,72762.8,-3.03,-4.29,-4.29,0,*65
1514721633.15,1959,6.94,72754.8,-3.01,-4.21,-4.21,0,*66
1514721634.37,1960,6.94,72752.8,-3.01,-4.29,-4.29,0,*6C
1514721635.59,1961,6.94,72754.5,-3.01,-4.53,-4.53,0,*6D
1514721636.8,1962,6.94,72756.5,-3.01,-4.45,-4.45,0,*6E
1514721638.02,1963,6.88,72756.0,-3.01,-4.41,-4.33,0,*6A
1514721639.24,1964,6.94,72758.5,-3.01,-4.57,-4.53,0,*6C
1514721640.47,1965,6.94,72760.0,-3.01,-4.57,-4.57,0,*69
1514721641.73,1966,6.94,72762.0,-3.01,-4.73,-4.69,0,*61
1514721642.96,1967,6.94,72764.3,-3.01,-4.57,-4.57,0,*6B
1514721644.17,1968,6.94,72760.3,-3.01,-4.45,-4.41,0,*60
1514721645.39,1969,6.94,72762.5,-3.01,-4.53,-4.41,0,*66
1514721646.6,1970,6.94,72764.5,-3.01,-4.53,-4.45,0,*6A
1514721647.81,1971,6.94,72770.0,-3.01,-4.45,-4.29,0,*66
1514721649.05,1972,6.94,72772.8,-3.01,-4.21,-4.21,0,*6F
1514721650.27,1973,6.94,72774.5,-3.01,-4.29,-4.21,0,*66
1514721651.5,1974,6.94,72772.5,-3.01,-4.29,-4.21,0,*61
1514721652.72,1975,6.94,72774.3,-3.01,-4.41,-4.29,0,*66
1514721653.91,1976,6.88,72768.0,-2.99,-4.49,-4.37,0,*62
1514721655.11,1977,6.94,72772.5,-3.01,-4.45,-4.45,0,*6A
1514721656.34,1978,6.94,72772.8,-3.01,-4.33,-4.33,0,*65
1514721657.53,1979,6.94,72774.3,-2.99,-4.29,-4.29,0,*64
1514721658.73,1980,6.94,72782.5,-2.99,-4.17,-4.13,0,*66
1514721659.92,1981,6.94,72786.0,-2.99,-4.25,-4.13,0,*66
1514721661.12,1982,6.94,72792.5,-2.99,-4.25,-4.29,0,*6C
1514721662.31,1983,6.94,72794.8,-2.99,-4.29,-4.17,0,*6C
1514721663.5,1984,6.94,72798.3,-2.99,-4.49,-4.49,0,*66
1514721664.69,1985,6.94,72796.8,-2.99,-4.49,-4.41,0,*6F
1514721665.9,1986,6.94,72794.3,-2.97,-4.49,-4.49,0,*6A
1514721667.08,1987,6.94,72790.3,-2.99,-4.49,-4.49,0,*65
1514721668.3,1988,6.94,72794.3,-2.97,-4.49,-4.41,0,*6C
1514721669.49,1989,6.94,72798.0,-2.99,-4.29,-4.37,0,*64
1514721670.7,1990,6.94,72794.5,-2.97,-4.49,-4.49,0,*6D
1514721671.91,1991,6.94,72796.3,-2.97,-4.49,-4.41,0,*64
1514721673.1,1992,6.94,72790.8,-2.99,-4.49,-4.41,0,*69
1514721674.32,1993,6.94,72774.3,-3.01,-4.53,-4.53,0,*60
1514721675.54,1994,6.94,72768.8,-2.97,-4.61,-4.53,0,*68
1514721676.73,1995,6.94,72758.8,-2.99,-4.53,-4.61,0,*67
1514721677.92,1996,6.94,72752.5,-2.99,-4.53,-4.53,0,*65
1514721679.12,1997,6.94,72744.3,-2.99,-4.29,-4.29,0,*64
1514721680.32,1998,6.94,72752.8,-2.99,-4.25,-4.25,0,*6B
1514721681.53,1999,6.94,72750.5,-3.01,-4.41,-4.41,0,*6A
1514721682.76,2000,6.94,72730.3,-3.01,-4.29,-4.21,0,*68
1514721683.99,2001,6.94,72732.3,-3.01,-4.21,-4.21,0,*61
1514721685.19,2002,6.94,72732.3,-2.99,-4.25,-4.25,0,*62
1514721686.39,2003,6.94,72726.5,-2.99,-4.29,-4.37,0,*6C
1514721687.58,2004,6.94,72724.0,-2.99,-4.37,-4.37,0,*64
1514721688.77,2005,6.94,72738.8,-2.99,-4.41,-4.41,0,*65
1514721689.96,2006,6.94,72738.0,-2.99,-4.53,-4.49,0,*6D
1514721691.15,2007,6.94,72748.5,-2.99,-4.49,-4.49,0,*67
1514721692.36,2008,6.94,72750.3,-3.01,-4.45,-4.41,0,*6C
1514721693.57,2009,6.94,72764.5,-3.01,-4.41,-4.33,0,*6C
1514721694.8,2010,6.94,72756.3,-3.01,-4.29,-4.29,0,*61
1514721696.03,2011,6.94,72762.5,-3.01,-4.21,-4.21,0,*60
1514721697.25,2012,6.94,72762.5,-3.01,-4.29,-4.29,0,*63
1514721698.47,2013,6.88,72760.8,-3.01,-4.29,-4.29,0,*62
1514721699.7,2014,6.94,72762.3,-3.01,-4.29,-4.29,0,*65
1514721700.91,2015,6.94,72770.8,-3.01,-4.53,-4.45,0,*63
1514721702.13,2016,6.94,72770.0,-3.01,-4.53,-4.53,0,*67
1514721703.33,2017,6.94,72766.0,-3.03,-4.57,-4.53,0,*60
1514721704.54,2018,6.94,72760.5,-3.01,-4.53,-4.53,0,*69
1514721705.78,2019,6.94,72762.5,-3.01,-4.21,-4.21,0,*68
1514721707.0,2020,6.94,72758.8,-3.01,-4.29,-4.29,0,*62
1514721708.2,2021,6.94,72756.8,-3.03,-4.21,-4.17,0,*64
1514721709.42,2022,6.94,72756.0,-3.01,-4.29,-4.29,0,*60
1514721710.64,2023,6.94,72758.8,-3.01,-4.33,-4.33,0,*61
1514721711.86,2024,6.94,72758.5,-3.01,-4.33,-4.33,0,*66
1514721713.08,2025,6.94,72758.5,-3.01,-4.41,-4.41,0,*67
1514721714.29,2026,6.94,72758.0,-3.01,-4.41,-4.45,0,*60
1514721715.52,2027,6.94,72760.0,-3.01,-4.21,-4.21,0,*65
1514721716.76,2028,6.94,72756.8,-3.01,-4.21,-4.21,0,*6A
1514721717.95,2029,6.94,72756.8,-2.99,-4.25,-4.17,0,*6A
1514721719.14,2030,6.94,72760.0,-2.99,-4.29,-4.17,0,*6E
1514721720.33,2031,6.88,72760.8,-2.99,-4.29,-4.25,0,*6E
1514721721.55,2032,6.94,72768.5,-2.97,-4.49,-4.41,0,*67
1514721722.73,2033,6.94,72770.3,-2.99,-4.49,-4.49,0,*60
1514721723.92,2034,6.94,72768.5,-2.99,-4.49,-4.41,0,*6F
1514721725.11,2035,6.94,72774.5,-2.99,-4.41,-4.41,0,*66
1514721726.33,2036,6.94,72778.3,-2.97,-4.41,-4.29,0,*65
1514721727.52,2037,6.94,72750.5,-2.99,-4.37,-4.37,0,*64
1514721728.71,2038,6.94,72728.5,-2.99,-4.41,-4.41,0,*6B
1514721729.9,2039,6.94,72722.8,-2.99,-4.49,-4.41,0,*62
1514721731.09,2040,6.94,72742.5,-2.99,-4.49,-4.49,0,*64
1514721732.28,2041,6.94,72740.0,-2.99,-4.61,-4.61,0,*65
1514721733.47,2042,6.94,72746.0,-2.99,-4.53,-4.53,0,*66
1514721734.68,2043,6.94,72732.3,-2.97,-4.49,-4.49,0,*69
1514721735.9,2044,6.94,72726.8,-2.97,-4.41,-4.49,0,*66
1514721737.09,2045,6.94,72750.5,-2.99,-4.49,-4.49,0,*61
1514721738.3,2046,6.94,72758.8,-2.97,-4.49,-4.41,0,*64
1514721739.5,2047,6.94,72762.0,-3.01,-4.45,-4.45,0,*63
1514721740.73,2048,6.94,72772.0,-3.01,-4.33,-4.41,0,*69
1514721741.95,2049,6.94,72782.0,-3.01,-4.53,-4.53,0,*6D
1514721743.16,2050,6.94,72782.8,-3.01,-4.41,-4.33,0,*60
1514721744.38,2051,6.94,72788.0,-2.97,-4.37,-4.25,0,*69
1514721745.57,2052,6.94,72786.3,-2.99,-4.37,-4.37,0,*67
1514721746.76,2053,6.94,72792.3,-2.99,-4.41,-4.37,0,*67
1514721747.98,2054,6.94,72794.0,-2.97,-4.25,-4.17,0,*6E
1514721749.17,2055,6.94,72798.0,-2.99,-4.25,-4.13,0,*65
1514721750.37,2056,6.94,72806.3,-2.99,-4.13,-4.05,0,*64
1514721751.61,2057,6.94,72804.5,-2.97,-4.01,-4.13,0,*6F
1514721752.81,2058,6.94,72804.5,-2.99,-4.17,-4.13,0,*69
1514721754.0,2059,6.94,72810.0,-2.99,-4.25,-4.17,0,*6D
1514721755.19,2060,6.94,72810.0,-2.99,-4.29,-4.17,0,*6B
1514721756.38,2061,6.94,72810.8,-2.99,-4.25,-4.17,0,*66
1514721757.6,2062,6.94,72808.8,-2.97,-4.41,-4.29,0,*64
1514721758.81,2063,6.94,72812.0,-2.97,-4.37,-4.37,0,*6B
1514721760.03,2064,6.94,72812.8,-2.97,-4.29,-4.25,0,*60
1514721761.24,2065,6.94,72818.3,-2.97,-4.49,-4.41,0,*65
1514721762.44,2066,6.94,72818.8,-2.95,-4.57,-4.57,0,*6C
1514721763.65,2067,6.94,72814.8,-2.97,-4.49,-4.41,0,*67
1514721764.84,2068,6.94,72818.0,-2.99,-4.49,-4.37,0,*67
1514721766.03,2069,6.94,72812.3,-2.99,-4.41,-4.29,0,*61
1514721767.23,2070,6.94,72812.5,-2.99,-4.29,-4.29,0,*67
1514721768.45,2071,6.94,72806.5,-2.97,-4.25,-4.25,0,*68
1514721769.65,2072,6.94,72806.3,-2.99,-4.29,-4.25,0,*69
1514721770.84,2073,6.94,72794.5,-2.99,-4.29,-4.29,0,*64
1514721772.05,2074,6.94,72788.8,-2.97,-4.17,-4.17,0,*6D
1514721773.24,2075,6.94,72790.8,-2.99,-4.37,-4.41,0,*63
1514721774.46,2076,6.94,72784.8,-2.97,-4.41,-4.41,0,*6F
1514721775.67,2077,6.94,72778.8,-2.97,-4.29,-4.41,0,*60
1514721776.89,2078,6.94,72780.0,-2.97,-4.29,-4.37,0,*6E
1514721778.09,2079,6.94,72782.8,-2.99,-4.29,-4.29,0,*6E
1514721779.28,2080,6.94,72786.5,-2.99,-4.41,-4.41,0,*68
1514721780.49,2081,6.94,72786.0,-2.97,-4.49,-4.49,0,*67
1514721781.68,2082,6.94,72786.0,-2.99,-4.25,-4.17,0,*6B
1514721782.89,2083,6.94,72782.3,-2.97,-4.17,-4.17,0,*65
1514721784.11,2084,6.94,72782.3,-2.97,-4.17,-4.05,0,*61
1514721785.32,2085,6.94,72776.0,-2.97,-4.17,-4.05,0,*60
1514721786.52,2086,6.94,72774.0,-2.95,-4.09,-4.09,0,*62
1514721787.74,2087,6.94,72774.5,-2.97,-4.25,-4.25,0,*61
1514721788.95,2088,6.94,72780.5,-2.97,-4.37,-4.29,0,*61
1514721790.16,2089,6.94,72780.3,-2.97,-4.49,-4.49,0,*6F
1514721791.35,2090,6.94,72788.3,-2.99,-4.49,-4.49,0,*69
1514721792.56,2091,6.94,72784.5,-2.97,-4.53,-4.49,0,*6D
1514721793.75,2092,6.94,72780.3,-2.99,-4.61,-4.61,0,*6B
1514721794.97,2093,6.94,72776.3,-2.97,-4.41,-4.41,0,*64
1514721796.19,2094,6.94,72752.8,-2.97,-4.29,-4.37,0,*6C
1514721797.4,2095,6.94,72756.3,-2.97,-4.41,-4.49,0,*6A
1514721798.62,2096,6.94,72758.5,-2.97,-4.41,-4.37,0,*60
1514721799.81,2097,6.94,72742.5,-2.99,-4.37,-4.37,0,*6E
1514721801.0,2098,6.94,72738.3,-2.99,-4.37,-4.49,0,*68
1514721802.21,2099,6.94,72738.3,-2.97,-4.53,-4.49,0,*65
1514721803.4,2100,6.94,72744.3,-2.99,-4.61,-4.61,0,*61
1514721804.6,2101,6.94,72736.8,-2.99,-4.53,-4.53,0,*60
1514721805.81,2102,6.94,72726.8,-2.97,-4.61,-4.65,0,*69
1514721807.01,2103,6.94,72728.5,-2.99,-4.65,-4.65,0,*62
1514721808.2,2104,6.94,72718.5,-2.99,-4.61,-4.61,0,*65
1514721809.4,2105,6.94,72724.5,-2.99,-4.61,-4.53,0,*65
1514721810.59,2106,6.94,72722.3,-2.99,-4.41,-4.37,0,*66
1514721811.78,2107,6.94,72722.0,-2.99,-4.17,-4.17,0,*66
1514721813.0,2108,6.94,72730.5,-2.97,-4.25,-4.25,0,*67
1514721814.21,2109,6.94,72726.5,-2.97,-4.37,-4.37,0,*66
1514721815.43,2110,6.94,72730.0,-2.97,-4.49,-4.41,0,*66
1514721816.64,2111,6.94,72730.3,-2.97,-4.29,-4.29,0,*6F
1514721817.86,2112,6.88,72736.0,-2.97,-4.37,-4.29,0,*63
1514721819.07,2113,6.94,72734.5,-2.97,-4.37,-4.25,0,*6E
1514721820.26,2114,6.94,72732.3,-2.99,-4.49,-4.37,0,*6D
1514721821.45,2115,6.94,72738.5,-2.99,-4.41,-4.41,0,*65
1514721822.65,2116,6.94,72736.3,-2.99,-4.41,-4.41,0,*66
1514721823.86,2117,6.94,72726.5,-2.97,-4.29,-4.29,0,*69
1514721825.08,2118,6.94,72728.3,-2.97,-4.49,-4.37,0,*6F
1514721826.29,2119,6.88,72728.8,-2.97,-4.49,-4.49,0,*67
1514721827.48,2120,6.94,72720.5,-2.99,-4.37,-4.41,0,*62
1514721828.7,2121,6.94,72722.8,-2.97,-4.25,-4.29,0,*60
1514721829.91,2122,6.94,72722.0,-2.97,-4.49,-4.41,0,*67
1514721831.12,2123,6.94,72746.5,-2.97,-4.49,-4.49,0,*6E
1514721832.33,2124,6.94,72736.8,-2.97,-4.49,-4.49,0,*69
1514721833.54,2125,6.94,72738.0,-2.97,-4.49,-4.41,0,*60
1514721834.75,2126,6.94,72738.0,-2.97,-4.49,-4.49,0,*6B
1514721835.97,2127,6.94,72726.3,-2.97,-4.49,-4.49,0,*6A
1514721837.18,2128,6.94,72716.3,-2.97,-4.49,-4.41,0,*6D
1514721838.39,2129,6.94,72718.0,-2.97,-4.13,-4.13,0,*64
1514721839.59,2130,6.94,72724.8,-2.99,-4.25,-4.17,0,*63
1514721840.78,2131,6.94,72728.3,-2.99,-4.25,-4.25,0,*63
1514721842.0,2132,6.94,72738.0,-2.97,-4.41,-4.37,0,*6F
1514721843.21,2133,6.94,72726.5,-2.97,-4.37,-4.29,0,*60
1514721844.43,2134,6.94,72712.8,-2.97,-4.49,-4.41,0,*60
1514721845.64,2135,6.94,72708.0,-2.97,-4.37,-4.37,0,*69
1514721846.85,2136,6.94,72684.5,-2.97,-4.49,-4.49,0,*6A
1514721848.04,2137,6.94,72692.3,-2.99,-4.53,-4.61,0,*64
1514721849.24,2138,6.94,72710.8,-2.99,-4.61,-4.61,0,*6A
1514721850.45,2139,6.94,72694.0,-2.97,-4.61,-4.53,0,*64
1514721851.67,2140,6.94,72718.0,-2.97,-4.53,-4.53,0,*6B
1514721852.89,2141,6.94,72714.0,-2.97,-4.61,-4.61,0,*6A
1514721854.08,2142,6.94,72716.0,-2.99,-4.49,-4.53,0,*6C
1514721855.27,2143,6.94,72706.3,-2.99,-4.49,-4.49,0,*66
1514721856.45,2144,6.94,72706.3,-2.99,-4.49,-4.49,0,*61
1514721857.66,2145,6.94,72708.3,-2.97,-4.49,-4.49,0,*6E
1514721858.85,2146,6.94,72718.0,-2.99,-4.49,-4.49,0,*63
1514721860.04,2147,6.94,72708.5,-2.99,-4.53,-4.53,0,*62
1514721861.26,2148,6.94,72706.0,-2.97,-4.53,-4.61,0,*62
1514721862.45,2149,6.94,72686.5,-2.95,-4.61,-4.61,0,*60
1514721863.65,2150,6.94,72688.0,-2.99,-4.61,-4.61,0,*64
1514721864.86,2151,6.94,72710.0,-2.97,-4.53,-4.41,0,*68
1514721866.05,2152,6.94,72718.3,-2.99,-4.49,-4.49,0,*66
1514721867.26,2153,6.94,72722.8,-2.97,-4.61,-4.65,0,*6D
1514721868.45,2154,6.94,72736.3,-2.99,-4.37,-4.41,0,*61
1514721869.64,2155,6.94,72742.5,-2.99,-4.37,-4.41,0,*60
1514721870.83,2156,6.94,72724.3,-2.99,-4.49,-4.41,0,*6A
1514721872.02,2157,6.94,72724.3,-2.99,-4.41,-4.41,0,*63
1514721873.21,2158,6.94,72734.5,-2.99,-4.49,-4.49,0,*6C
1514721874.4,2159,6.94,72738.0,-2.99,-4.41,-4.41,0,*6D
1514721875.59,2160,6.94,72736.5,-2.99,-4.49,-4.41,0,*6F
1514721876.78,2161,6.88,72734.5,-2.99,-4.49,-4.49,0,*66
1514721877.96,2162,6.94,72732.8,-2.99,-4.49,-4.41,0,*6D
1514721879.17,2163,6.94,72728.3,-2.97,-4.49,-4.49,0,*6A
1514721880.36,2164,6.94,72732.0,-2.99,-4.41,-4.49,0,*6B
1514721881.56,2165,6.94,72740.3,-2.99,-4.41,-4.41,0,*62
1514721882.74,2166,6.94,72748.8,-2.99,-4.49,-4.49,0,*61
1514721884.0,2167,6.94,72754.5,-2.97,-4.93,-4.93,0,*6E
1514721885.22,2168,6.88,72754.3,-2.97,-4.65,-4.61,0,*65
1514721886.44,2169,6.94,72764.5,-2.97,-4.61,-4.65,0,*64
1514721887.68,2170,6.94,72784.3,-2.97,-4.65,-4.69,0,*64
1514721888.89,2171,6.94,72768.5,-2.97,-4.61,-4.61,0,*69
1514721890.14,2172,6.94,72740.8,-2.99,-4.81,-4.89,0,*6C
1514721891.33,2173,6.94,72732.5,-2.99,-4.65,-4.61,0,*61
1514721892.52,2174,6.94,72746.5,-2.99,-4.49,-4.49,0,*62
1514721893.73,2175,6.94,72762.5,-2.97,-4.41,-4.41,0,*6D
1514721894.92,2176,6.94,72762.3,-2.99,-4.53,-4.49,0,*6B
1514721896.14,2177,6.94,72750.8,-2.99,-4.65,-4.69,0,*6D
1514721897.33,2178,6.94,72742.5,-2.99,-4.65,-4.65,0,*6E
1514721898.52,2179,6.94,72740.3,-2.99,-4.53,-4.49,0,*64
1514721899.71,2180,6.94,72746.0,-2.99,-4.37,-4.37,0,*69
1514721900.91,2181,6.94,72760.0,-2.99,-4.29,-4.29,0,*68
1514721902.1,2182,6.94,72752.8,-2.99,-4.61,-4.61,0,*6B
1514721903.3,2183,6.94,72752.0,-2.99,-4.61,-4.61,0,*6A
1514721904.52,2184,6.94,72754.5,-3.01,-4.33,-4.33,0,*6D
1514721905.72,2185,6.94,72762.3,-2.99,-4.25,-4.29,0,*60
1514721906.9,2186,6.94,72766.0,-2.99,-4.49,-4.49,0,*6F
1514721908.09,2187,6.94,72772.8,-2.99,-4.49,-4.49,0,*6E
1514721909.28,2188,6.94,72764.0,-2.99,-4.53,-4.61,0,*60
1514721910.48,2189,6.94,72766.0,-2.99,-4.61,-4.61,0,*60
1514721911.67,2190,6.94,72760.8,-2.99,-4.61,-4.61,0,*68
1514721912.89,2191,6.94,72754.5,-2.97,-4.65,-4.65,0,*67
1514721914.15,2192,6.94,72744.5,-3.01,-4.85,-4.85,0,*6A
1514721915.36,2193,6.94,72750.3,-3.01,-4.99,-4.99,0,*6B
1514721916.6,2194,6.94,72748.8,-3.01,-4.99,-4.93,0,*66
1514721917.87,2195,6.94,72736.0,-3.01,-5.19,-5.11,0,*65
1514721919.14,2196,6.94,72726.8,-3.01,-4.85,-4.73,0,*67
1514721920.36,2197,6.94,72742.8,-3.01,-4.57,-4.57,0,*6F
1514721921.62,2198,6.94,72732.5,-3.01,-4.69,-4.69,0,*60
1514721922.89,2199,6.94,72710.5,-3.01,-4.81,-4.73,0,*6C
1514721924.11,2200,6.94,72724.0,-3.01,-4.57,-4.57,0,*62
1514721925.34,2201,6.94,72734.0,-3.01,-4.65,-4.65,0,*63
1514721926.58,2202,6.94,72736.8,-3.01,-4.69,-4.65,0,*6C
1514721927.79,2203,6.94,72732.0,-3.03,-4.69,-4.65,0,*6F
1514721929.05,2204,6.94,72732.8,-3.01,-4.69,-4.69,0,*66
1514721930.29,2205,6.94,72716.8,-3.03,-4.85,-4.81,0,*61
1514721931.53,2206,6.94,72724.0,-3.03,-4.69,-4.69,0,*66
1514721932.77,2207,6.94,72742.0,-3.03,-4.73,-4.73,0,*67
1514721934.01,2208,6.94,72746.5,-3.03,-4.81,-4.81,0,*68
1514721935.28,2209,6.94,72742.5,-3.05,-4.89,-4.89,0,*6F
1514721936.51,2210,6.94,72740.0,-3.03,-4.81,-4.73,0,*6C
1514721937.75,2211,6.94,72736.3,-3.03,-4.93,-4.85,0,*67
1514721939.02,2212,6.94,72738.3,-3.05,-5.15,-5.15,0,*65
1514721940.26,2213,6.94,72740.3,-3.07,-5.03,-4.93,0,*6E
1514721941.53,2214,6.94,72742.3,-3.05,-4.73,-4.69,0,*68
1514721942.74,2215,6.94,72740.5,-3.05,-4.61,-4.61,0,*62
1514721943.95,2216,6.94,72732.5,-3.05,-4.61,-4.61,0,*61
1514721945.15,2217,6.94,72742.3,-3.07,-4.65,-4.65,0,*62
1514721946.36,2218,6.94,72742.5,-3.07,-4.69,-4.61,0,*65
1514721947.56,2219,6.94,72740.8,-3.07,-4.65,-4.65,0,*6C
1514721948.79,2220,6.94,72744.8,-3.07,-4.77,-4.77,0,*66
1514721950.05,2221,6.94,72742.8,-3.05,-4.73,-4.77,0,*61
1514721951.31,2222,6.94,72740.0,-3.05,-4.85,-4.85,0,*66
1514721952.55,2223,6.94,72742.0,-3.07,-4.81,-4.81,0,*65
1514721953.78,2224,6.94,72734.8,-3.07,-4.77,-4.77,0,*62
1514721955.04,2225,6.94,72734.3,-3.05,-4.77,-4.73,0,*65
1514721956.27,2226,6.94,72732.5,-3.07,-4.77,-4.77,0,*60
1514721957.53,2227,6.94,72738.3,-3.05,-4.69,-4.69,0,*63
1514721958.76,2228,6.94,72744.5,-3.07,-4.81,-4.73,0,*63
1514721960.02,2229,6.88,72744.8,-3.05,-4.73,-4.69,0,*66
1514721961.22,2230,6.94,72752.8,-3.07,-4.65,-4.65,0,*67
1514721962.43,2231,6.94,72756.5,-3.05,-4.49,-4.49,0,*64
1514721963.63,2232,6.94,72760.5,-3.05,-4.49,-4.45,0,*6B
1514721964.83,2233,6.94,72766.3,-3.03,-4.41,-4.41,0,*60
1514721966.02,2234,6.94,72770.8,-3.07,-4.37,-4.29,0,*6C
1514721967.22,2235,6.94,72770.5,-3.03,-4.33,-4.29,0,*6D
1514721968.43,2236,6.94,72768.8,-3.05,-4.61,-4.57,0,*66
1514721969.64,2237,6.94,72768.8,-3.05,-4.49,-4.37,0,*6B
1514721970.83,2238,6.94,72764.5,-3.07,-4.49,-4.45,0,*63
1514721972.06,2239,6.94,72766.8,-3.05,-4.69,-4.61,0,*64
1514721973.27,2240,6.94,72766.0,-3.05,-4.57,-4.45,0,*61
1514721974.46,2241,6.94,72760.5,-3.07,-4.49,-4.49,0,*61
1514721975.66,2242,6.94,72766.3,-3.05,-4.45,-4.45,0,*60
1514721976.87,2243,6.94,72762.8,-3.05,-4.57,-4.45,0,*62
1514721978.06,2244,6.94,72760.5,-3.03,-4.45,-4.33,0,*61
1514721979.25,2245,6.94,72762.0,-3.03,-4.41,-4.29,0,*6F
1514721980.45,2246,6.94,72766.8,-3.03,-4.41,-4.29,0,*6C
1514721981.64,2247,6.94,72764.5,-3.03,-4.21,-4.17,0,*66
1514721982.83,2248,6.94,72766.0,-3.03,-4.09,-4.17,0,*63
1514721984.02,2249,6.94,72774.0,-3.03,-4.09,-4.05,0,*61
1514721985.21,2250,6.94,72772.8,-3.03,-4.17,-4.17,0,*65
1514721986.41,2251,6.94,72774.5,-3.03,-4.29,-4.21,0,*6C
1514721987.6,2252,6.94,72774.3,-3.03,-4.45,-4.41,0,*63
1514721988.81,2253,6.94,72772.0,-3.01,-4.45,-4.33,0,*65
1514721990.04,2254,6.94,72768.8,-3.01,-4.33,-4.29,0,*68
1514721991.26,2255,6.94,72776.5,-3.01,-4.33,-4.21,0,*61
1514721992.44,2256,6.94,72792.0,-3.03,-4.45,-4.45,0,*63
1514721993.66,2257,6.88,72798.0,-3.01,-4.53,-4.45,0,*67
1514721994.85,2258,6.94,72800.8,-2.99,-4.61,-4.53,0,*6E
1514721996.09,2259,6.94,72800.8,-3.01,-4.69,-4.65,0,*62
1514721997.3,2260,6.94,72798.8,-3.01,-4.53,-4.45,0,*63
1514721998.53,2261,6.94,72796.3,-3.01,-4.57,-4.53,0,*61
1514721999.72,2262,6.94,72800.3,-3.03,-4.57,-4.45,0,*67
1514722000.92,2263,6.94,72800.0,-3.03,-4.33,-4.33,0,*65
1514722002.1,2264,6.94,72790.5,-3.03,-4.45,-4.41,0,*66
1514722003.29,2265,6.94,72788.8,-3.03,-4.53,-4.53,0,*63
1514722004.51,2266,6.94,72780.5,-3.01,-4.45,-4.41,0,*66
1514722005.7,2267,6.94,72782.8,-3.03,-4.33,-4.29,0,*6A
1514722006.93,2268,6.94,72786.5,-3.01,-4.29,-4.21,0,*64
1514722008.13,2269,6.94,72784.0,-3.03,-4.33,-4.29,0,*64
1514722009.35,2270,6.94,72780.5,-3.01,-4.41,-4.21,0,*63
1514722010.57,2271,6.94,72780.8,-3.01,-4.29,-4.29,0,*64
1514722011.77,2272,6.94,72786.5,-3.03,-4.41,-4.29,0,*6B
1514722012.96,2273,6.94,72766.8,-3.03,-4.17,-4.09,0,*6B
1514722014.19,2274,6.94,72766.5,-3.01,-3.95,-3.91,0,*65
1514722015.39,2275,6.94,72760.0,-3.03,-3.83,-3.83,0,*62
1514722016.59,2276,6.94,72756.8,-2.99,-3.79,-3.79,0,*63
1514722017.81,2277,6.94,72756.8,-3.01,-3.79,-3.83,0,*67
1514722019.04,2278,6.94,72758.0,-3.01,-3.79,-3.83,0,*68
1514722020.27,2279,6.94,72746.3,-3.01,-3.91,-3.91,0,*6C
1514722021.49,2280,6.94,72748.0,-3.01,-4.05,-4.09,0,*66
1514722022.72,2281,6.94,72750.5,-3.01,-4.33,-4.21,0,*68
1514722023.93,2282,6.94,72754.5,-3.01,-4.17,-4.17,0,*68
1514722025.14,2283,6.94,72760.0,-3.01,-4.17,-4.17,0,*69
1514722026.36,2284,6.94,72766.5,-3.01,-4.09,-4.17,0,*61
1514722027.58,2285,6.94,72766.0,-3.01,-4.09,-4.05,0,*63
1514722028.8,2286,6.94,72772.5,-3.01,-4.09,-4.09,0,*6C
1514722029.99,2287,6.94,72774.3,-2.99,-4.05,-4.05,0,*6D
1514722031.21,2288,6.94,72774.5,-3.01,-4.05,-4.05,0,*62
1514722032.43,2289,6.94,72768.0,-3.01,-4.09,-4.09,0,*63
1514722033.63,2290,6.94,72762.5,-2.99,-3.91,-3.91,0,*6B
1514722034.84,2291,6.94,72758.0,-2.97,-3.87,-3.87,0,*64
1514722036.06,2292,6.94,72752.5,-2.99,-4.13,-4.01,0,*6A
1514722037.25,2293,6.94,72754.8,-2.99,-4.25,-4.17,0,*69
1514722038.44,2294,6.94,72750.8,-2.99,-4.25,-4.17,0,*6E
1514722039.64,2295,6.94,72752.3,-2.99,-4.17,-4.25,0,*6F
1514722040.86,2296,6.94,72754.3,-2.97,-4.13,-4.13,0,*63
1514722042.07,2297,6.94,72752.5,-2.99,-4.05,-4.01,0,*68
1514722043.31,2298,6.94,72754.0,-2.97,-4.05,-4.01,0,*69
1514722044.56,2299,6.94,72756.5,-2.99,-4.01,-4.01,0,*62
1514722045.76,2300,6.88,72754.5,-2.95,-3.95,-4.09,0,*6D
1514722046.98,2301,6.88,72762.3,-2.97,-4.13,-4.13,0,*6C
1514722048.19,2302,6.94,72768.5,-2.97,-4.13,-4.05,0,*68
1514722049.41,2303,6.88,72774.3,-2.97,-4.13,-4.13,0,*6E
1514722050.65,2304,6.94,72786.5,-2.97,-4.05,-4.01,0,*6D
1514722051.9,2305,6.94,72790.0,-2.97,-4.01,-3.91,0,*66
1514722053.11,2306,6.94,72782.8,-2.97,-4.13,-4.05,0,*6C
1514722054.31,2307,6.94,72776.0,-2.95,-4.13,-4.09,0,*63
1514722055.5,2308,6.94,72774.3,-2.95,-4.09,-4.13,0,*6C
1514722056.72,2309,6.94,72766.3,-2.95,-4.09,-4.01,0,*6E
1514722057.92,2310,6.94,72754.3,-2.95,-4.33,-4.21,0,*6D
1514722059.12,2311,6.94,72752.3,-2.95,-4.33,-4.25,0,*68
1514722060.31,2312,6.94,72762.8,-2.95,-4.13,-4.13,0,*6C
1514722061.51,2313,6.94,72764.3,-2.91,-4.21,-4.09,0,*63
1514722062.71,2314,6.88,72748.3,-2.95,-4.09,-4.09,0,*6A
1514722063.92,2315,6.94,72746.3,-2.95,-4.09,-4.01,0,*63
1514722065.13,2316,6.94,72732.3,-2.95,-4.21,-4.25,0,*6C
1514722066.33,2317,6.94,72730.5,-2.95,-4.21,-4.25,0,*6D
1514722067.52,2318,6.94,72728.0,-2.95,-4.25,-4.33,0,*61
1514722068.74,2319,6.94,72722.3,-2.97,-4.49,-4.41,0,*6D
1514722069.95,2320,6.94,72724.5,-2.97,-4.49,-4.49,0,*6F
1514722071.15,2321,6.94,72736.8,-2.95,-4.21,-4.13,0,*6D
1514722072.36,2322,6.94,72734.8,-2.97,-4.37,-4.37,0,*6D
1514722073.58,2323,6.94,72730.0,-2.97,-4.29,-4.29,0,*6C
1514722074.8,2324,6.94,72724.8,-2.97,-4.29,-4.29,0,*6B
1514722075.99,2325,6.94,72736.5,-2.99,-4.29,-4.25,0,*68
1514722077.21,2326,6.94,72742.8,-2.97,-4.49,-4.49,0,*69
1514722078.43,2327,6.94,72748.3,-2.97,-4.29,-4.37,0,*67
1514722079.66,2328,6.94,72750.0,-2.97,-4.17,-4.01,0,*60
1514722080.88,2329,6.94,72754.3,-2.97,-4.05,-4.05,0,*66
1514722082.07,2330,6.94,72748.5,-2.95,-3.87,-3.87,0,*6C
1514722083.29,2331,6.94,72736.3,-2.95,-4.01,-3.95,0,*67
1514722084.5,2332,6.94,72722.3,-2.95,-4.21,-4.21,0,*6E
1514722085.7,2333,6.94,72746.5,-2.95,-4.13,-4.21,0,*6E
1514722086.9,2334,6.94,72750.3,-2.95,-4.13,-4.21,0,*69
1514722088.1,2335,6.94,72738.5,-2.95,-4.21,-4.25,0,*6D
1514722089.3,2336,6.94,72738.3,-2.95,-4.21,-4.13,0,*6B
1514722090.51,2337,6.88,72738.0,-2.95,-4.21,-4.21,0,*6B
1514722091.7,2338,6.94,72742.0,-2.95,-4.13,-4.13,0,*64
1514722092.9,2339,6.94,72746.5,-2.91,-4.09,-4.13,0,*6A
1514722094.09,2340,6.94,72742.8,-2.95,-4.09,-4.09,0,*6B
1514722095.29,2341,6.94,72740.3,-2.95,-4.09,-4.13,0,*61
1514722096.49,2342,6.94,72746.8,-2.95,-4.21,-4.21,0,*69
1514722097.69,2343,6.94,72742.0,-2.95,-4.21,-4.13,0,*69
1514722098.88,2344,6.94,72732.0,-2.95,-4.37,-4.33,0,*6B
1514722100.08,2345,6.94,72734.5,-2.95,-4.33,-4.25,0,*69
1514722101.27,2346,6.94,72734.8,-2.95,-4.37,-4.33,0,*69
1514722102.45,2347,6.88,72732.8,-2.95,-4.37,-4.45,0,*69
1514722103.65,2348,6.94,72736.3,-2.95,-4.25,-4.25,0,*63
1514722104.84,2349,6.94,72738.5,-2.95,-4.37,-4.37,0,*62
1514722106.03,2350,6.88,72738.5,-2.95,-4.49,-4.49,0,*6A
1514722107.23,2351,6.94,72742.3,-2.95,-4.57,-4.57,0,*6B
1514722108.42,2352,6.94,72736.5,-2.95,-4.57,-4.49,0,*67
1514722109.61,2353,6.94,72738.3,-2.95,-4.37,-4.25,0,*6A
1514722110.82,2354,6.94,72742.5,-2.91,-4.25,-4.25,0,*6A
1514722112.01,2355,6.94,72748.8,-2.95,-4.37,-4.37,0,*6F
1514722113.2,2356,6.94,72752.0,-2.95,-4.37,-4.37,0,*6C
1514722114.4,2357,6.94,72760.0,-2.95,-4.25,-4.25,0,*6D
1514722115.59,2358,6.94,72760.8,-2.95,-4.33,-4.37,0,*66
1514722116.81,2359,6.94,72760.0,-2.95,-4.13,-4.01,0,*60
1514722118.01,2360,6.94,72760.8,-2.95,-4.13,-4.21,0,*68